Location: Olsztyn
(53.7767°N, 20.4765°E)
Time: 21:05:34
(UTC+02:00)

Envisat - Pass Details

Date: 04 March 2024
Orbit: 762 x 764 km, 98.3° (Epoch: 21 April)

Event Time Altitude Azimuth Distance (km) Brightness Sun altitude
Rises 02:45:34 0° 18° (NNE) 3,245 7.0 -30.8°
Reaches altitude 10° 02:47:58 10° 24° (NNE) 2,314 6.2 -30.5°
Maximum altitude 02:52:54 48° 99° (E) 1,000 3.7 -29.9°
Enters shadow 02:53:12 47° 110° (ESE) 1,007 3.7 -29.8°
